Satellite-Ground Cal/Val Site Overpasses Predictions

Prediction of Satellite NPP Overpassing Cal/Val Site: Antarctic Dome C

Ground Cal/Val Site Location: Latitude: -75.10, Longitude: 123.35; Satellite-Ground Site NADIR distance within 100 km.

Table of predicted overpasses for the next 14.0 days since TLE Epoch: 9/10/2022
Interval Starting Time Ending Time Minimum Distance Time Minimum Distance (km)
1 09/10/2022 07:38:43 09/10/2022 07:39:10 09/10/2022 07:38:56 37.91
2 09/11/2022 07:19:57 09/11/2022 07:20:17 09/11/2022 07:20:07 72.07
3 09/13/2022 15:02:13 09/13/2022 15:02:36 09/13/2022 15:02:24 62.01
4 09/14/2022 14:43:23 09/14/2022 14:43:49 09/14/2022 14:43:36 47.34
5 09/15/2022 07:45:04 09/15/2022 07:45:24 09/15/2022 07:45:14 73.08
6 09/16/2022 07:26:12 09/16/2022 07:26:39 09/16/2022 07:26:26 34.64
7 09/18/2022 15:08:43 09/18/2022 15:08:44 09/18/2022 15:08:44 99.89
8 09/19/2022 14:49:39 09/19/2022 14:50:08 09/19/2022 14:49:53 11.75
